Regional Weather Roundup
Issued by NWS

Home | Current Version | Previous Version | Text Only | Print | Product List | Glossary Off
Versions: 1 2 3 4 5 6 7 8 9 10 11 12 13 14 15 16 17 18 19 20 21 22 23 24 25 26 27 28 29 30 31 32 33 34 35 36 37 38 39 40 41 42 43 44 45 46 47 48 49 50

000
ASUS43 KDTX 170310
RWRMI
MICHIGAN HOURLY REGIONAL WEATHER ROUNDUP
NATIONAL WEATHER SERVICE DETROIT/PONTIAC MI
1000 PM EST THU NOV 16 2017

NOTE: "FAIR" INDICATES FEW OR NO CLOUDS BELOW 12,000 FEET WITH NO
SIGNIFICANT WEATHER AND/OR OBSTRUCTION TO VISIBILITY.

MIZ047>049-052>055-059>063-066>070-074>076-081>083-170400-
SOUTHEAST LOWER MICHIGAN

CITY           SKY/WX    TMP DP  RH WIND       PRES   REMARKS
ADRIAN         CLOUDY    37  28  70 NW3       30.25R
ALMA           CLOUDY    33  27  79 NE6       30.26S WCI  27
ANN ARBOR      MOCLDY    34  26  72 NW7       30.24R WCI  28
BAD AXE        CLOUDY    32  24  72 NW7       30.23S WCI  26
CARO           CLOUDY    33  25  71 NW7       30.24R WCI  27
DETROIT CITY   CLOUDY    37  28  70 N8        30.24R WCI  31
DETROIT        MOCLDY    38  28  67 NW6       30.25R WCI  33
FLINT          CLOUDY    34  25  69 N7        30.26R WCI  28
GROSSE ILE     CLOUDY    38  29  71 NW3       30.23R
HILLSDALE      CLOUDY    34  28  80 CALM      30.22S
HOWELL         CLOUDY    35  29  79 CALM      30.24R

CITY           SKY/WX    TMP DP  RH WIND       PRES   REMARKS
JACKSON        CLOUDY    37  27  67 NW5       30.24R WCI  33
LAMBERTVILLE   CLOUDY    39  31  72 CALM      30.24R
LANSING        CLOUDY    31  26  82 CALM      30.26R
LAPEER         CLOUDY    34  26  75 N7        30.25R WCI  27
MASON          CLOUDY    33  28  82 N3        30.25R
MONROE         CLOUDY    36  27  70 N3        30.24R
MT. CLEMENS    CLOUDY    36  28  73 N10       30.22R WCI  28
PONTIAC        CLOUDY    35  28  75 N7        30.22R WCI  29
PORT HOPE        N/A     35  25  66 N7        30.20S WCI  29
PORT HURON     CLOUDY    34  27  75 N5        30.23R WCI  30
TRI CITIES     CLOUDY    34  27  75 NE3       30.27R
MIDLAND        CLOUDY    33  24  71 CALM      30.26R
TROY           CLOUDY    39  29  67 N7        30.25R WCI  34
SAGINAW HB     CLOUDY    32  27  80 NW5       30.26R WCI  27
$$
MIZ043>046-050>051-056>058-064>065-071>073-077>080-170400-
SOUTHWEST LOWER MICHIGAN

CITY           SKY/WX    TMP DP  RH WIND       PRES   REMARKS
BATTLE CREEK   CLOUDY    33  28  81 CALM      30.24R
BENTON HARBOR  CLOUDY    38  36  92 CALM      30.25R
BIG RAPIDS     CLOUDY    31  24  73 CALM      30.24S
COLDWATER      CLOUDY    36  29  76 CALM      30.24S
FREMONT        FAIR      29  26  88 CALM      30.25S
HOLLAND        CLEAR     32  28  85 NE3       30.26R
GRAND RAPIDS   PTCLDY    29  27  92 CALM      30.24S
IONIA          FAIR      31  27  84 CALM      30.25R
KALAMAZOO      CLOUDY    37  30  75 CALM      30.25R
LUDINGTON      CLOUDY    32  26  77 E5        30.26R WCI  27
MARSHALL       CLOUDY    33  30  87 CALM      30.23S
MOUNT PLEASANT CLOUDY    32  24  72 CALM      30.25R
MUSKEGON       PTCLDY    29  25  85 E5        30.27R WCI  24
SOUTH HAVEN    CLOUDY    37  31  80 NE6       30.25R WCI  32
$$
MIZ016>042-170400-
NORTHERN LOWER MICHIGAN

CITY           SKY/WX    TMP DP  RH WIND       PRES   REMARKS
ALPENA         CLOUDY    30  22  72 N10       30.25R WCI  21
BEAVER ISLAND  CLOUDY    28  21  77 CALM      30.27R
BELLAIRE       CLOUDY    30  24  79 CALM      30.27S
CADILLAC       CLOUDY    28  23  81 N6        30.22S WCI  22
CHARLEVOIX     CLOUDY    30  21  71 E5        30.30R WCI  25
FRANKFORT      CLOUDY    33  25  70 CALM      30.26R
GAYLORD        CLOUDY    25  18  74 CALM      30.22R
GRAYLING       CLOUDY    27  18  70 CALM      30.25R
HARBOR SPRINGS PTCLDY    24  20  85 CALM      30.26S
HOUGHTON LAKE  CLOUDY    27  21  78 N5        30.24R WCI  22
MANISTEE       CLOUDY    31  25  78 NE6       30.26S WCI  25
OSCODA         CLOUDY    31  20  63 N3        30.24R
PELLSTON       CLOUDY    26  20  77 W5        30.26S WCI  20
ROGERS CITY    CLOUDY    29  20  69 NE5       30.26R WCI  24
TRAVERSE CITY  CLOUDY    32  23  69 E7        30.25S WCI  26
$$
MIZ007>008-015-170400-
EASTERN UPPER MICHIGAN

CITY           SKY/WX    TMP DP  RH WIND       PRES   REMARKS
KINROSS        CLOUDY    20  16  84 NE5       30.26R WCI  13
MACKINAC ISLAN CLOUDY    26  19  72 NE9       30.25S WCI  17
NEWBERRY       CLOUDY    25  19  80 CALM      30.24S
S. S. MARIE    CLOUDY    22  13  68 NE7       30.26R WCI  13
MUNISING         N/A     27  23  85 S5        30.25F WCI  22
$$
MIZ004>006-011>014-085-170400-
CENTRAL UPPER MICHIGAN

CITY           SKY/WX    TMP DP  RH WIND       PRES   REMARKS
MANISTIQUE     MOCLDY    21  16  81 CALM      30.27R
ESCANABA       CLOUDY    27  21  78 CALM      30.26F
MENOMINEE      CLOUDY    29  22  75 NE6       30.25F WCI  23
SAWYER-GWINN   CLOUDY    25  21  86 CALM      30.21R
$$
MIZ001>003-009>011-084-170400-
WESTERN UPPER MICHIGAN

CITY           SKY/WX    TMP DP  RH WIND       PRES   REMARKS
IRON MOUNTAIN  CLOUDY    26  18  71 SE9       30.18F WCI  17
HOUGHTON       CLOUDY    25  19  78 SE13      30.16F WCI  14
COPPER HARBOR    N/A     26  18  71 S5        30.21F WCI  20
IRONWOOD       CLOUDY    26  22  84 SE8       30.11S WCI  18
$$

ABBREVIATIONS USED IN REMARKS
   TC - TEMPERATURE IN CELSIUS
  WCI - WIND CHILL INDEX
   HX - HEAT INDEX
  VSB - VISIBILITY





USA.gov is the U.S. government's official web portal to all federal, state and local government web resources and services.